Date,TemperatureHighF,TemperatureAvgF,TemperatureLowF,DewpointHighF,DewpointAvgF,DewpointLowF,HumidityHigh,HumidityAvg,HumidityLow,PressureMaxIn,PressureMinIn,WindSpeedMaxMPH,WindSpeedAvgMPH,GustSpeedMaxMPH,PrecipitationSumIn
2013-1-1,40.6,38.2,34.4,30.7,29.1,24.6,80,70,62,30.03,29.93,8,1,0,0.00
2013-1-2,34.3,29.9,25.8,26.1,18.5,13.3,75,62,47,30.25,30.01,11,2,16,0.00
2013-1-3,37.1,29.8,21.3,21.3,17.9,13.8,76,61,47,30.27,30.16,7,0,0,0.00
2013-1-4,39.8,34.4,31.7,24.9,22.5,21.0,67,62,53,30.22,30.12,10,1,15,0.00
2013-1-5,41.0,34.6,31.4,25.1,23.0,20.9,68,62,51,30.39,30.16,14,1,21,0.00
2013-1-6,46.6,39.7,31.1,30.6,28.1,24.7,78,64,49,30.21,30.03,8,1,0,0.00
2013-1-7,41.9,37.5,28.4,32.3,27.2,23.6,83,66,56,30.44,30.15,10,1,18,0.00
2013-1-8,49.0,35.5,24.2,35.0,28.5,20.9,92,76,55,30.43,30.37,3,0,0,0.00
2013-1-9,48.7,38.3,29.2,39.1,33.3,26.9,95,83,55,30.40,30.25,4,0,0,0.00
2013-1-10,49.1,44.5,39.5,32.0,29.5,27.0,65,56,45,30.62,30.40,7,2,15,0.00
2013-1-11,43.2,40.0,36.5,40.1,34.8,29.3,98,82,64,30.50,30.11,8,1,15,0.16
2013-1-12,54.9,45.5,39.7,49.1,43.6,39.2,99,93,80,30.19,30.10,5,0,0,0.00
2013-1-13,54.6,48.4,42.3,54.6,48.2,41.7,100,99,95,30.13,29.95,12,2,13,0.01
2013-1-14,54.8,48.7,38.2,54.8,44.1,34.4,100,85,64,30.32,29.93,13,2,18,0.23
2013-1-15,39.2,37.1,32.5,37.2,34.2,31.2,97,89,75,30.36,30.17,8,2,0,0.49
2013-1-16,41.0,35.1,32.2,38.7,34.4,31.2,98,97,89,30.18,29.87,7,1,12,0.67
2013-1-17,42.7,38.7,34.0,38.0,30.5,25.8,89,73,51,30.15,29.99,12,1,12,0.00
2013-1-18,35.6,31.5,27.7,29.3,18.4,11.5,80,59,44,30.51,30.06,19,3,23,0.00
2013-1-19,53.6,38.4,25.8,31.7,27.1,21.1,89,66,42,30.40,29.94,9,2,14,0.00
2013-1-20,54.6,41.4,31.6,33.8,23.5,11.5,76,52,23,30.09,29.83,14,2,16,0.00
2013-1-21,39.6,30.8,25.6,25.6,18.1,10.7,68,59,45,30.11,29.83,14,2,19,0.00
2013-1-22,25.0,17.0,12.3,11.5,0.3,-3.5,62,47,35,30.32,29.98,16,2,20,0.00
2013-1-23,23.7,17.0,9.6,11.7,2.1,0.1,75,52,38,30.38,30.16,8,0,14,0.00
2013-1-24,24.0,18.8,14.5,13.9,8.4,0.6,89,66,40,30.54,30.12,14,2,20,0.00
2013-1-25,20.9,17.2,14.3,16.2,8.8,1.3,91,70,52,30.54,30.09,11,1,16,0.00
2013-1-26,30.6,23.5,17.9,25.3,20.2,15.7,93,87,72,30.46,30.11,6,0,0,0.06
2013-1-27,34.8,28.3,20.3,21.5,18.8,14.8,81,68,53,30.61,30.46,6,1,0,0.00
2013-1-28,38.0,33.0,29.9,37.5,30.6,21.2,99,91,68,30.49,30.06,12,2,12,0.23
2013-1-29,66.3,55.4,37.7,54.8,49.5,37.2,99,82,65,30.12,29.95,10,2,17,0.00
2013-1-30,68.7,58.2,54.2,61.7,55.5,50.7,99,91,75,29.95,29.21,16,3,22,2.28
2013-1-31,54.8,38.6,28.0,54.5,26.9,12.1,100,63,47,29.90,29.15,20,3,24,0.39
2013-2-1,29.3,23.2,15.8,24.1,11.4,4.7,93,61,48,30.40,29.83,13,2,26,0.00
2013-2-2,26.6,19.9,12.4,24.1,13.1,4.8,93,75,59,30.40,30.04,8,1,13,0.00
2013-2-3,31.7,26.9,22.0,28.3,24.0,16.4,100,89,64,30.04,29.84,10,1,15,0.01
2013-2-4,36.2,28.8,22.3,24.2,16.9,12.4,75,61,48,30.11,29.90,15,2,16,0.00
2013-2-5,36.0,32.4,30.6,31.7,27.6,22.9,95,83,70,29.95,29.87,5,0,0,0.01
2013-2-6,38.9,34.8,29.0,31.8,27.4,20.8,92,75,61,30.36,29.95,11,1,13,0.00
2013-2-7,37.0,31.6,25.1,29.0,23.7,20.0,86,72,62,30.46,30.22,10,2,12,0.00
2013-2-8,38.8,34.4,31.1,37.3,30.8,23.1,97,87,68,30.22,29.80,15,2,21,0.13
2013-2-9,37.3,31.1,26.3,23.2,18.5,15.3,72,60,43,30.42,29.97,20,5,30,0.00
2013-2-10,42.4,33.2,22.2,22.8,18.2,14.7,76,55,36,30.49,30.23,11,3,15,0.00
2013-2-11,56.4,43.6,33.5,49.9,38.1,22.9,98,84,34,30.23,29.70,11,3,18,0.35
2013-2-12,53.4,46.1,38.2,32.8,28.6,25.6,65,51,38,30.00,29.83,14,2,18,0.00
2013-2-13,41.0,35.2,31.4,32.3,28.7,25.1,97,78,64,29.96,29.68,6,1,0,0.03
2013-2-14,47.4,38.2,30.8,33.3,29.8,26.3,98,73,53,30.03,29.79,6,1,0,0.14
2013-2-15,54.7,39.9,29.7,37.6,32.2,26.1,96,76,47,30.05,29.93,11,1,20,0.18
2013-2-16,36.8,32.5,27.5,33.6,26.3,17.3,98,79,56,30.01,29.87,11,2,12,0.01
2013-2-17,28.8,25.1,21.5,18.3,12.9,6.6,76,59,46,30.23,29.86,16,4,23,0.00
2013-2-18,40.8,29.5,18.6,16.7,10.8,6.3,61,46,32,30.40,30.15,16,3,22,0.00
2013-2-19,44.9,38.2,31.6,39.8,28.6,16.6,91,69,44,30.15,29.70,12,3,16,0.08
2013-2-20,35.3,28.8,23.4,22.0,14.7,9.6,60,55,50,30.18,29.86,20,3,21,0.00
2013-2-21,35.3,27.6,22.3,18.1,15.0,11.0,73,59,47,30.36,30.15,13,3,19,0.00
2013-2-22,30.8,28.4,24.9,28.6,23.0,17.5,93,80,68,30.40,30.22,8,2,14,0.01
2013-2-23,44.7,36.7,30.5,42.4,35.4,28.5,98,95,90,30.22,29.84,5,1,0,0.01
2013-2-24,47.0,38.3,30.0,38.5,29.8,20.4,97,73,46,30.13,29.82,17,3,22,0.00
2013-2-25,44.9,35.6,26.0,26.3,23.0,19.4,77,61,45,30.24,30.12,6,1,0,0.00
2013-2-26,40.2,36.0,31.6,39.2,31.2,23.4,97,83,63,30.23,29.64,20,4,23,1.22
2013-2-27,53.8,43.7,35.7,42.3,36.5,33.4,98,78,51,29.70,29.56,14,2,17,0.06
2013-2-28,43.8,40.2,34.3,36.1,30.1,26.6,82,67,56,29.74,29.64,12,1,12,0.00
2013-3-1,42.1,37.7,31.4,32.1,28.6,23.3,79,70,55,29.91,29.73,14,2,17,0.00
2013-3-2,34.5,31.1,28.7,24.2,22.5,20.8,75,70,61,29.91,29.84,15,3,15,0.00
2013-3-3,38.3,31.6,28.0,22.6,20.6,18.3,78,64,48,29.94,29.82,16,4,23,0.00
2013-3-4,39.7,32.2,26.0,21.4,18.1,14.8,68,56,43,30.06,29.93,20,4,21,0.00
2013-3-5,47.0,37.7,28.8,26.9,20.7,12.9,69,52,28,30.09,29.82,11,2,16,0.00
2013-3-6,38.7,35.2,32.0,34.1,32.1,28.8,97,89,71,30.03,29.68,27,5,27,0.66
2013-3-7,45.6,37.8,28.7,30.6,28.7,26.1,92,71,52,30.17,30.03,17,4,22,0.00
2013-3-8,46.6,39.6,34.1,30.5,28.2,25.2,80,64,51,30.30,30.16,23,6,29,0.00
2013-3-9,57.6,43.1,28.8,31.3,26.3,23.1,80,54,29,30.38,30.26,8,1,0,0.00
2013-3-10,61.1,48.4,32.4,31.6,26.1,21.0,77,45,25,30.32,30.19,18,3,19,0.00
2013-3-11,57.6,49.7,41.1,49.1,41.8,22.8,93,75,37,30.22,29.89,16,4,23,0.00
2013-3-12,57.2,49.8,40.1,52.7,43.2,29.7,97,79,62,29.97,29.74,22,5,26,1.01
2013-3-13,47.4,39.1,31.5,31.3,25.6,19.5,74,59,36,30.07,29.91,11,2,17,0.00
2013-3-14,41.5,35.1,29.8,20.5,18.4,16.4,64,51,37,30.14,30.03,23,4,24,0.00
2013-3-15,55.9,43.5,30.2,35.9,26.2,19.8,68,51,36,30.10,29.78,9,1,16,0.00
2013-3-16,47.4,42.4,35.3,37.7,34.7,32.3,92,74,58,29.87,29.66,12,2,17,0.00
2013-3-17,38.8,36.8,35.0,30.5,25.4,23.0,77,63,54,30.27,30.14,9,3,15,0.00
2013-3-18,35.5,32.8,29.6,31.9,27.9,22.0,97,83,60,30.32,29.90,10,2,15,0.13
2013-3-19,56.5,41.8,32.5,40.6,28.9,12.4,99,68,22,29.92,29.73,10,2,17,0.22
2013-3-20,49.9,40.7,32.4,27.2,18.3,15.2,70,41,26,29.99,29.77,13,2,20,0.00
2013-3-21,35.4,30.6,26.4,25.6,15.0,9.3,71,52,38,29.90,29.78,16,4,20,0.00
2013-3-22,42.3,33.6,25.0,21.3,18.3,12.1,65,54,41,30.01,29.89,11,2,18,0.00
2013-3-23,50.2,37.9,26.9,27.1,22.8,19.2,75,56,35,30.05,29.93,14,2,16,0.00
2013-3-24,40.2,34.8,28.1,30.8,24.2,19.8,88,66,50,30.01,29.66,9,1,0,0.00
2013-3-25,37.0,33.7,31.4,35.1,32.0,30.3,97,94,88,29.72,29.54,4,0,0,0.42
2013-3-26,48.6,38.9,31.2,34.0,30.9,27.5,98,75,45,30.00,29.72,13,2,22,0.01
2013-3-27,47.5,40.8,35.6,32.6,28.9,25.5,75,63,46,30.13,29.99,20,3,20,0.00
2013-3-28,46.8,40.7,34.7,33.1,30.4,27.9,77,67,50,30.24,30.09,14,2,21,0.00
2013-3-29,54.6,44.9,36.6,35.4,30.6,26.1,77,59,36,30.26,30.15,15,2,15,0.00
2013-3-30,57.6,45.8,31.2,34.8,26.5,19.7,85,51,25,30.24,30.10,8,1,0,0.00
2013-3-31,47.8,44.8,42.2,46.4,37.8,24.1,98,78,41,30.11,29.75,9,1,13,0.16
2013-4-1,58.7,47.3,36.9,46.0,35.5,17.5,97,65,42,30.00,29.76,15,2,24,0.00
2013-4-2,45.2,37.3,28.9,23.0,17.7,14.5,62,45,30,30.19,30.00,12,1,18,0.00
2013-4-3,47.3,36.9,28.5,22.3,17.7,12.5,67,47,28,30.41,30.19,17,3,26,0.00
2013-4-4,46.5,36.0,24.3,29.7,16.1,13.0,66,46,29,30.42,30.09,8,2,13,0.00
2013-4-5,62.0,47.7,34.3,35.1,29.2,20.9,92,54,28,30.08,29.83,15,3,20,0.00
2013-4-6,53.7,44.4,31.8,26.9,22.6,17.8,68,43,28,30.33,30.07,7,2,16,0.00
2013-4-7,68.6,53.8,39.5,45.4,36.2,22.2,69,52,39,30.26,29.96,13,5,19,0.00
2013-4-8,78.8,67.6,53.5,50.7,46.7,43.5,71,49,32,30.07,29.92,11,2,15,0.00
2013-4-9,83.3,72.9,60.5,58.7,53.2,47.9,65,51,37,30.07,29.89,8,1,0,0.00
2013-4-10,89.3,76.9,64.3,61.4,56.0,51.4,66,50,33,29.94,29.74,8,1,15,0.00
2013-4-11,83.6,70.2,55.9,62.2,57.5,52.2,88,66,43,29.88,29.70,19,2,25,0.00
2013-4-12,63.0,53.8,50.2,58.3,52.1,45.5,98,94,82,29.79,29.58,19,4,24,0.61
2013-4-13,66.3,55.4,44.9,44.9,37.7,29.6,80,53,34,29.97,29.79,10,1,13,0.00
2013-4-14,65.0,54.0,40.8,39.7,36.6,34.0,79,53,34,30.16,29.97,8,1,14,0.00
2013-4-15,62.8,57.1,52.2,52.2,47.3,39.2,83,70,52,30.28,30.12,9,2,14,0.00
2013-4-16,73.7,62.8,53.6,60.3,54.7,46.9,89,76,61,30.29,30.09,14,3,21,0.00
2013-4-17,70.1,62.9,58.0,63.0,57.8,53.5,99,84,68,30.22,30.11,12,2,13,0.09
2013-4-18,75.5,63.9,56.8,65.2,58.2,54.0,98,83,62,30.22,29.96,15,3,19,0.04
2013-4-19,74.2,64.6,51.8,66.1,59.0,40.5,95,82,64,29.96,29.57,17,6,23,0.55
2013-4-20,57.0,49.9,40.3,42.5,31.8,26.9,72,50,35,30.36,29.78,11,2,18,0.01
2013-4-21,51.8,43.3,32.2,30.8,26.8,23.2,77,53,35,30.60,30.36,8,1,13,0.00
2013-4-22,55.1,46.2,37.5,37.3,34.0,28.4,83,64,46,30.58,30.40,12,2,14,0.00
2013-4-23,56.5,47.8,40.9,44.6,39.4,33.5,82,73,58,30.42,30.11,8,1,0,0.00
2013-4-24,75.6,58.6,45.1,59.7,50.2,41.6,95,76,48,30.12,29.75,13,3,24,0.12
2013-4-25,62.6,51.4,42.0,44.6,34.5,29.2,73,54,31,30.32,30.02,11,2,24,0.00
2013-4-26,62.0,52.3,41.1,39.6,33.7,29.5,79,51,31,30.47,30.31,9,1,0,0.00
2013-4-27,68.6,56.4,41.1,46.2,38.5,32.9,77,53,33,30.43,30.27,11,1,12,0.00
2013-4-28,61.6,54.5,49.9,50.7,45.1,37.6,92,72,49,30.28,30.13,13,2,18,0.11
2013-4-29,58.9,54.5,50.9,57.6,52.9,47.7,98,95,79,30.14,30.05,12,2,15,0.22
2013-4-30,59.1,55.3,53.3,56.8,54.2,52.7,100,96,89,30.30,30.10,7,1,0,0.08
2013-5-1,68.9,58.6,49.1,53.6,41.5,34.2,98,57,28,30.42,30.30,9,2,15,0.00
2013-5-2,68.9,56.7,41.8,49.9,45.3,40.4,97,68,40,30.44,30.31,7,1,14,0.00
2013-5-3,66.7,56.4,47.1,48.6,44.6,40.9,87,67,42,30.39,30.28,11,2,14,0.00
2013-5-4,66.9,54.5,40.9,46.8,42.9,38.6,94,68,41,30.34,30.18,12,2,17,0.00
2013-5-5,62.4,52.0,42.6,45.0,41.8,39.2,90,69,47,30.26,30.14,11,2,14,0.00
2013-5-6,59.8,53.1,45.5,57.4,49.6,42.3,95,88,79,30.19,30.06,14,3,16,0.02
2013-5-7,61.8,58.8,56.6,61.1,58.0,55.8,99,97,95,30.08,29.94,13,3,14,1.42
2013-5-8,69.6,60.3,53.4,59.1,56.2,52.3,99,87,60,30.01,29.91,7,1,16,0.13
2013-5-9,73.4,60.5,49.9,62.0,55.5,49.4,100,85,60,30.01,29.91,6,0,0,0.01
2013-5-10,82.2,66.4,53.2,62.6,57.9,51.9,98,78,43,30.01,29.84,7,1,14,0.70
2013-5-11,76.1,65.2,59.9,67.0,61.0,54.2,100,87,64,29.88,29.72,12,0,13,0.66
2013-5-12,61.3,55.9,46.6,54.8,39.3,29.9,82,55,35,30.03,29.75,15,2,18,0.00
2013-5-13,57.2,48.8,40.3,37.0,30.2,25.9,70,50,31,30.18,30.02,12,1,15,0.00
2013-5-14,61.3,48.9,32.5,40.9,35.1,29.3,90,61,38,30.23,30.04,6,0,0,0.00
2013-5-15,83.3,64.7,51.6,66.4,51.8,39.1,77,64,46,30.05,29.68,12,1,16,0.00
2013-5-16,79.5,73.6,66.2,66.0,59.4,53.5,82,62,46,29.92,29.74,6,0,12,0.01
2013-5-17,81.7,70.5,58.6,60.9,55.1,47.0,92,61,36,30.12,29.92,7,1,12,0.00
2013-5-18,68.6,62.2,57.2,58.0,55.4,48.9,97,79,51,30.22,30.12,8,1,12,0.02
2013-5-19,63.5,59.0,57.2,62.9,58.6,56.4,100,99,97,30.21,30.15,8,1,0,0.01
2013-5-20,73.1,71.8,69.3,67.3,66.8,66.0,90,84,82,29.98,29.97,1,0,0,0.04
2013-5-21,84.1,74.1,64.4,72.6,68.6,63.7,100,84,65,29.99,29.85,9,1,14,0.00
2013-5-22,87.6,74.3,64.8,74.5,68.5,63.8,100,84,49,29.93,29.80,11,1,14,0.51
2013-5-23,77.5,67.7,63.4,69.9,65.5,62.1,100,93,74,29.89,29.72,7,1,12,0.18
2013-5-24,63.5,54.2,45.3,63.2,47.0,34.1,99,77,57,30.18,29.74,17,3,23,0.05
2013-5-25,63.2,52.7,40.9,43.0,37.2,33.6,77,57,39,30.20,30.10,16,2,21,0.00
2013-5-26,69.5,57.6,45.6,45.3,38.6,35.5,70,51,30,30.24,30.13,14,1,15,0.00
2013-5-27,68.3,59.2,45.4,51.9,44.9,37.2,80,60,40,30.30,30.18,6,0,0,0.00
2013-5-28,76.1,64.5,54.3,67.0,59.0,50.3,96,83,68,30.20,30.05,7,1,0,0.15
2013-5-29,88.2,75.8,62.2,70.6,65.8,61.5,99,74,45,30.11,30.05,6,0,0,0.00
2013-5-30,90.6,79.2,65.8,71.2,67.3,64.4,96,69,44,30.17,30.08,9,0,12,0.00
2013-5-31,87.9,78.4,64.7,69.8,65.5,62.4,97,67,43,30.14,30.00,11,1,13,0.00
2013-6-1,88.5,78.7,64.5,71.3,67.1,62.6,95,69,51,30.03,29.88,9,1,13,0.00
2013-6-2,80.6,73.3,68.6,72.1,67.6,64.1,97,83,66,29.89,29.81,6,1,12,0.14
2013-6-3,79.1,70.6,62.3,69.7,64.4,55.0,99,82,61,29.96,29.83,10,1,13,0.41
2013-6-4,75.0,63.7,52.5,55.4,49.5,43.9,89,62,41,30.12,29.96,8,1,13,0.00
2013-6-5,77.1,65.8,51.7,59.2,54.8,49.8,96,70,49,30.18,30.03,9,2,14,0.00
2013-6-6,69.0,63.8,60.7,64.1,59.0,51.6,99,85,68,30.06,29.86,9,2,14,0.86
2013-6-7,68.5,65.0,62.1,67.8,64.4,61.8,100,98,95,29.86,29.62,9,1,0,0.41
2013-6-8,76.9,68.8,63.5,64.5,61.8,58.4,97,79,61,30.09,29.72,7,1,13,0.01
2013-6-9,78.1,68.6,60.0,69.0,62.9,57.4,97,83,65,30.19,30.09,8,1,19,0.30
2013-6-10,78.1,69.8,67.0,73.8,68.7,65.3,100,96,84,30.09,29.76,15,1,19,1.36
2013-6-11,80.5,71.8,64.3,69.5,66.1,64.1,100,83,64,29.84,29.77,4,0,0,0.01
2013-6-12,87.5,77.4,67.4,72.1,67.8,63.5,92,74,53,29.86,29.77,5,0,0,0.01
2013-6-13,83.0,71.9,67.1,71.2,66.1,56.6,99,83,64,29.79,29.45,12,1,20,0.28
2013-6-14,77.4,68.0,60.0,58.7,55.7,51.2,87,66,44,29.98,29.61,13,3,16,0.00
2013-6-15,81.1,69.6,56.8,63.3,56.7,51.2,95,66,37,30.08,29.98,8,0,0,0.00
2013-6-16,80.8,71.7,61.5,68.3,61.9,52.4,88,72,57,30.03,29.88,4,0,0,0.00
2013-6-17,84.9,76.4,68.3,73.8,67.3,62.3,87,74,60,29.95,29.86,3,0,0,0.17
2013-6-18,73.6,70.0,64.9,71.6,67.7,64.0,98,93,82,29.91,29.77,5,0,0,0.38
2013-6-19,77.0,68.2,61.3,64.1,61.0,58.1,98,79,55,30.14,29.89,6,1,0,0.34
2013-6-20,78.1,69.2,60.7,67.0,61.9,57.4,99,79,58,30.26,30.14,11,2,13,0.00
2013-6-21,81.2,70.7,57.6,62.5,56.9,50.1,87,63,49,30.30,30.21,8,1,0,0.00
2013-6-22,84.6,73.9,61.6,70.6,65.2,54.1,97,75,55,30.25,30.11,7,1,0,0.00
2013-6-23,85.6,75.8,67.5,72.9,69.5,66.3,97,82,60,30.18,30.05,5,0,0,0.00
2013-6-24,89.4,76.5,69.4,75.4,69.5,62.5,97,80,49,30.12,30.02,9,0,17,0.00
2013-6-25,90.9,78.6,66.1,74.6,70.1,63.1,98,77,52,30.03,29.87,13,0,26,0.23
2013-6-26,89.1,74.6,64.2,75.6,68.6,63.6,99,83,60,29.92,29.81,9,0,0,0.01
2013-6-27,81.3,74.6,67.1,74.7,70.1,66.4,100,86,71,29.82,29.60,12,1,15,0.00
2013-6-28,87.6,76.5,69.7,74.2,67.9,62.7,90,76,55,29.61,29.47,6,0,0,0.04
2013-6-29,85.4,75.2,65.6,67.4,64.6,61.2,97,72,47,29.70,29.51,7,0,13,0.26
2013-6-30,85.9,75.0,66.6,74.7,70.7,66.0,99,87,68,29.84,29.69,9,1,15,0.05
2013-7-1,80.9,74.9,70.4,73.6,70.8,68.6,97,87,74,29.96,29.83,9,2,13,0.09
2013-7-2,81.1,75.9,72.9,74.4,71.9,70.0,94,88,75,30.15,29.96,13,3,19,0.00
2013-7-3,83.6,75.6,71.2,76.1,72.5,70.0,99,90,75,30.22,30.13,11,2,15,0.32
2013-7-4,87.0,79.5,72.4,76.0,73.0,70.7,98,81,65,30.24,30.14,11,2,13,0.00
2013-7-5,87.3,79.8,70.2,75.6,72.7,69.0,98,80,65,30.22,30.10,9,1,16,0.00
2013-7-6,90.6,80.7,70.9,75.2,72.6,69.8,98,78,57,30.18,30.04,9,0,12,0.00
2013-7-7,89.2,76.6,68.8,76.4,70.9,67.9,99,84,62,30.09,29.98,15,0,17,0.37
2013-7-8,85.3,75.1,67.8,73.7,69.4,65.6,100,84,56,30.10,30.03,4,0,15,0.14
2013-7-9,82.2,75.5,69.2,75.4,71.3,67.9,97,87,74,30.10,29.99,7,0,0,0.05
2013-7-10,85.7,77.6,73.5,76.6,72.6,68.2,95,85,68,30.00,29.84,5,0,0,0.07
2013-7-11,83.4,76.1,70.7,72.0,68.7,63.9,96,79,62,29.92,29.84,6,1,0,0.00
2013-7-12,74.0,69.4,64.3,68.0,65.6,62.6,97,88,68,30.05,29.90,7,1,0,0.54
2013-7-13,81.9,73.9,67.4,73.3,70.0,66.4,99,88,71,30.26,30.04,6,0,0,0.17
2013-7-14,87.4,79.4,73.4,75.2,72.9,71.0,97,82,62,30.33,30.26,7,0,0,0.00
2013-7-15,90.8,80.5,70.1,76.9,73.0,69.5,99,80,56,30.30,30.18,4,0,0,0.00
2013-7-16,91.3,82.3,73.9,77.5,71.8,65.8,93,73,44,30.25,30.16,7,1,0,0.00
2013-7-17,93.4,83.2,73.1,77.5,71.7,67.7,90,70,45,30.22,30.08,5,0,0,0.00
2013-7-18,95.5,84.5,73.1,79.8,75.3,70.6,94,75,51,30.11,29.99,4,0,0,0.00
2013-7-19,94.2,83.6,74.8,80.7,75.7,69.0,96,78,58,30.00,29.85,6,0,13,0.00
2013-7-20,92.6,80.3,72.1,77.5,71.6,68.6,95,76,56,29.89,29.78,8,0,13,0.13
2013-7-21,85.5,76.1,69.9,74.5,70.8,66.4,96,84,66,29.94,29.87,4,0,0,0.01
2013-7-22,86.7,75.9,68.6,75.3,71.7,67.7,99,88,66,29.93,29.74,7,0,0,0.42
2013-7-23,84.8,75.7,70.0,74.6,70.6,67.6,100,85,61,29.77,29.65,4,0,12,0.19
2013-7-24,80.7,73.4,67.3,69.0,63.6,55.9,90,72,54,29.93,29.68,8,1,14,0.00
2013-7-25,76.2,67.1,57.7,62.0,56.5,51.3,90,70,46,30.05,29.92,8,1,17,0.00
2013-7-26,80.9,70.0,58.8,64.9,60.1,57.3,97,73,46,30.11,30.02,2,0,0,0.00
2013-7-27,82.0,70.9,61.8,71.9,66.1,58.6,96,85,69,30.05,29.92,12,1,14,0.04
2013-7-28,82.6,73.4,65.2,71.2,68.2,63.4,98,85,60,29.99,29.88,7,0,14,0.41
2013-7-29,80.1,68.3,57.5,63.8,58.8,55.9,98,74,46,30.17,29.99,4,0,0,0.00
2013-7-30,80.9,69.4,57.3,63.7,59.3,55.0,94,72,50,30.23,30.14,6,0,0,0.00
2013-7-31,78.3,69.8,61.2,69.2,65.0,59.6,97,85,71,30.15,30.00,7,0,12,0.02
2013-8-1,82.4,72.3,66.7,72.1,68.8,65.9,100,90,67,30.00,29.81,6,0,12,0.45
2013-8-2,84.6,73.4,63.2,69.6,64.4,60.3,100,76,46,29.96,29.86,5,0,0,0.01
2013-8-3,72.9,68.2,63.8,68.4,64.6,60.7,98,88,76,29.97,29.92,4,0,0,0.17
2013-8-4,77.4,68.4,59.8,64.6,59.6,53.5,99,76,46,30.03,29.93,11,1,18,0.01
2013-8-5,77.3,65.7,55.1,62.4,55.7,52.5,91,71,47,30.11,30.01,1,0,0,0.00
2013-8-6,75.8,68.0,62.1,69.5,64.0,57.2,98,87,74,30.07,30.01,8,1,12,0.71
2013-8-7,82.6,72.9,67.5,73.4,69.5,66.0,99,90,72,30.07,29.97,11,1,0,0.70
2013-8-8,82.1,74.1,67.6,75.4,71.9,67.3,100,93,77,30.03,29.96,7,1,0,0.06
2013-8-9,84.2,77.5,72.8,77.2,73.7,70.4,98,88,75,29.96,29.85,8,0,13,0.27
2013-8-10,82.9,73.9,67.6,70.8,67.2,62.4,97,81,51,30.08,29.95,3,0,0,0.01
2013-8-11,83.2,74.0,64.8,71.4,66.6,63.2,97,79,56,30.12,29.99,9,1,0,0.00
2013-8-12,85.6,76.9,69.5,73.1,69.2,66.9,98,79,55,30.02,29.90,4,0,0,0.10
2013-8-13,84.5,74.1,67.9,73.4,68.8,57.8,98,85,61,29.90,29.73,6,0,13,0.41
2013-8-14,71.6,64.0,53.5,57.9,52.7,48.5,89,67,53,30.11,29.84,18,2,19,0.00
2013-8-15,75.0,63.2,51.5,57.7,52.0,47.9,94,70,42,30.20,30.10,3,0,0,0.00
2013-8-16,77.6,65.8,52.1,62.6,55.8,51.0,98,73,45,30.20,30.13,5,0,0,0.00
2013-8-17,77.7,67.7,54.2,62.2,57.8,52.8,97,73,51,30.27,30.19,8,1,12,0.00
2013-8-18,69.5,66.0,61.2,63.6,61.3,59.4,95,85,73,30.25,30.17,8,0,0,0.03
2013-8-19,76.4,66.3,58.4,69.1,63.7,57.6,99,92,76,30.18,30.07,4,0,0,0.00
2013-8-20,84.0,73.0,63.6,73.7,66.3,63.0,100,82,52,30.17,30.09,5,0,0,0.01
2013-8-21,86.5,75.3,63.2,74.4,69.2,62.3,99,83,59,30.19,30.05,6,0,0,0.00
2013-8-22,84.6,75.8,66.8,72.3,68.3,63.4,97,78,63,30.08,29.92,5,0,0,0.00
2013-8-23,72.8,68.9,63.4,68.8,65.8,62.8,98,90,76,30.13,29.94,2,0,0,0.54
2013-8-24,79.5,68.8,56.9,64.8,58.9,53.1,99,74,42,30.33,30.13,6,0,0,0.01
2013-8-25,80.8,69.7,57.8,66.9,60.1,56.1,97,74,45,30.41,30.25,8,0,0,0.00
2013-8-26,85.7,72.6,57.7,68.4,62.9,56.1,97,74,52,30.28,30.00,4,0,0,0.00
2013-8-27,88.1,78.2,71.6,74.1,69.6,64.5,87,75,61,30.00,29.87,5,0,12,0.00
2013-8-28,73.7,72.1,70.3,72.3,70.5,68.6,99,95,87,29.91,29.81,1,0,0,0.60
2013-8-29,82.9,74.6,68.8,71.7,69.4,67.1,99,85,64,30.01,29.84,7,1,0,0.00
2013-8-30,85.1,74.7,66.7,73.2,69.4,65.5,99,85,61,30.03,29.87,6,0,0,0.00
2013-8-31,88.4,78.3,68.1,75.9,71.5,67.2,98,81,60,29.88,29.77,12,0,12,0.00
2013-9-1,88.7,77.4,67.2,75.8,71.1,66.6,99,83,56,29.84,29.74,3,0,0,0.08
2013-9-2,88.6,77.7,69.0,74.9,71.3,68.4,99,82,57,29.80,29.70,3,0,0,0.00
2013-9-3,81.2,73.4,63.6,71.4,62.8,55.3,92,71,47,29.97,29.72,8,1,0,0.00
2013-9-4,79.8,67.2,53.7,60.2,55.7,51.9,96,69,40,30.09,29.97,5,0,0,0.00
2013-9-5,80.5,68.8,57.7,65.7,57.6,48.1,93,69,45,30.14,30.01,7,0,13,0.00
2013-9-6,72.8,63.5,55.1,53.0,49.0,45.3,78,60,42,30.27,30.14,9,1,14,0.00
2013-9-7,79.6,65.0,49.6,62.3,55.5,47.0,95,73,50,30.15,29.93,6,0,0,0.00
2013-9-8,83.2,71.5,59.9,69.4,63.4,57.9,97,77,59,30.06,29.89,9,1,13,0.02
2013-9-9,75.5,66.9,58.4,66.3,56.2,47.2,88,69,56,30.21,30.06,8,1,13,0.00
2013-9-10,90.8,77.7,65.0,75.4,70.0,63.8,98,79,55,30.17,30.07,5,0,0,0.00
2013-9-11,91.9,81.1,70.4,78.0,73.2,69.5,99,79,55,30.14,29.99,7,0,0,0.00
2013-9-12,89.5,76.5,69.2,74.8,69.9,63.0,96,81,57,29.99,29.73,7,0,0,0.00
2013-9-13,74.2,66.5,54.9,64.1,56.6,49.2,93,72,45,29.95,29.71,11,2,18,0.02
2013-9-14,66.0,56.0,46.0,49.5,46.3,43.2,92,71,50,30.18,29.95,9,1,14,0.00
2013-9-15,74.5,60.1,42.7,58.0,51.0,41.6,98,74,49,30.24,30.08,6,0,0,0.00
2013-9-16,69.8,61.7,56.0,60.5,56.7,52.9,97,85,61,30.24,30.03,11,1,12,0.10
2013-9-17,65.5,56.4,46.9,53.5,43.7,37.6,83,64,37,30.44,30.24,13,2,16,0.00
2013-9-18,68.6,56.4,41.0,53.7,46.4,39.1,97,72,45,30.35,30.18,6,0,0,0.00
2013-9-19,75.9,61.5,47.8,59.6,53.6,46.4,98,77,52,30.21,30.07,7,0,0,0.00
2013-9-20,77.6,66.1,54.3,63.3,59.4,53.2,99,81,59,30.09,29.94,9,1,13,0.00
2013-9-21,70.3,64.2,59.8,64.7,61.3,59.1,98,90,77,29.96,29.67,13,2,18,0.49
2013-9-22,69.7,60.5,50.3,59.1,53.4,46.6,99,79,52,29.97,29.73,8,1,13,0.01
2013-9-23,63.1,54.2,46.0,47.8,45.6,43.6,92,74,53,30.11,29.97,9,1,12,0.00
2013-9-24,69.3,55.4,42.7,52.3,46.7,41.4,97,75,46,30.13,29.96,6,0,0,0.00
2013-9-25,74.0,59.3,46.2,53.2,47.5,42.1,97,69,37,30.01,29.89,5,0,0,0.00
2013-9-26,72.0,60.3,49.3,54.9,49.6,44.6,91,70,44,30.08,29.94,5,0,0,0.00
2013-9-27,70.4,60.0,50.7,59.7,55.1,48.6,96,85,64,30.24,30.08,3,0,0,0.00
2013-9-28,67.3,59.2,50.7,57.0,53.6,49.0,97,83,56,30.32,30.22,5,0,0,0.00
2013-9-29,71.5,59.5,46.8,57.5,52.3,45.7,99,79,52,30.22,30.07,5,0,0,0.00
2013-9-30,74.5,61.8,48.6,59.5,53.9,47.8,99,78,50,30.10,29.97,5,0,0,0.00
2013-10-1,79.8,65.3,53.7,63.6,57.3,52.4,98,78,49,30.08,29.97,5,0,0,0.00
2013-10-2,82.6,69.6,56.6,64.7,59.7,54.9,96,73,49,30.09,29.99,6,0,0,0.00
2013-10-3,83.6,70.4,59.1,66.8,62.4,57.3,96,78,53,30.13,30.03,4,0,0,0.00
2013-10-4,84.3,71.2,60.5,69.0,63.8,59.5,99,80,53,30.09,30.00,3,0,0,0.00
2013-10-5,86.4,74.7,64.5,69.2,65.4,62.5,95,75,50,30.09,29.99,5,0,0,0.00
2013-10-6,86.6,74.6,63.9,70.0,65.5,62.4,98,76,48,30.01,29.88,13,2,18,0.00
2013-10-7,72.6,64.2,54.6,68.4,59.3,45.3,98,85,66,30.06,29.74,16,2,20,0.98
2013-10-8,66.5,56.6,46.0,49.5,45.4,43.0,92,68,45,30.30,30.06,12,1,12,0.04
2013-10-9,59.2,54.5,47.7,49.6,47.0,44.6,92,76,65,30.35,30.25,8,1,12,0.07
2013-10-10,58.2,54.9,52.1,57.4,52.6,47.8,99,92,77,30.24,30.03,9,2,15,2.80
2013-10-11,60.9,58.2,55.0,60.1,57.5,54.4,99,97,95,30.03,29.97,14,2,14,1.45
2013-10-12,67.9,61.9,59.5,60.1,57.8,54.0,98,87,66,30.18,30.00,14,2,16,0.27
2013-10-13,59.4,57.4,56.4,58.2,56.4,54.9,98,96,92,30.33,30.18,7,1,13,0.35
2013-10-14,68.0,58.7,52.3,55.5,53.3,50.4,94,83,61,30.36,30.23,4,0,0,0.00
2013-10-15,69.9,59.9,48.4,55.4,51.2,43.6,99,75,52,30.25,30.08,5,0,0,0.00
2013-10-16,69.0,62.4,56.8,62.1,58.5,47.8,97,87,63,30.09,29.90,7,0,0,0.00
2013-10-17,74.0,63.9,57.0,65.5,60.6,51.1,100,90,68,29.91,29.69,8,1,16,0.19
2013-10-18,63.9,55.7,46.0,51.0,43.9,40.8,92,65,47,30.02,29.83,8,1,12,0.00
2013-10-19,61.8,52.1,43.6,56.7,48.4,41.7,95,87,75,30.00,29.78,8,1,14,0.23
2013-10-20,60.4,52.5,43.4,45.0,39.3,37.2,81,62,44,30.10,29.89,8,0,13,0.00
2013-10-21,65.4,52.0,37.7,47.2,41.1,35.3,95,69,40,30.16,29.95,14,2,17,0.00
2013-10-22,59.8,50.8,43.8,50.2,42.3,32.2,94,74,47,29.95,29.84,8,0,0,0.00
2013-10-23,54.3,45.0,40.0,40.1,36.0,29.7,89,71,45,29.92,29.70,6,0,15,0.00
2013-10-24,48.1,41.7,36.9,36.5,32.8,28.8,87,71,50,30.15,29.91,8,0,13,0.00
2013-10-25,51.9,40.9,32.8,37.1,31.8,29.1,88,71,49,30.33,30.15,10,1,13,0.00
2013-10-26,53.9,43.7,30.2,33.4,29.9,26.4,87,60,41,30.32,29.94,11,1,16,0.00
2013-10-27,57.3,48.7,40.0,39.3,34.4,30.8,76,58,44,30.16,29.96,7,0,12,0.00
2013-10-28,60.9,46.8,34.1,41.9,36.0,30.3,89,68,44,30.30,30.15,4,0,0,0.00
2013-10-29,61.0,49.6,38.9,43.2,39.5,35.0,87,69,49,30.40,30.29,4,0,0,0.00
2013-10-30,66.4,55.3,46.6,54.7,49.6,41.4,97,82,65,30.32,30.14,6,0,0,0.09
2013-10-31,67.3,60.3,55.1,60.2,57.2,53.7,98,90,74,30.18,29.74,15,2,18,0.04
2013-11-1,73.1,64.4,53.8,62.9,53.9,44.9,95,71,42,29.73,29.54,16,2,23,0.33
2013-11-2,63.3,55.1,47.3,50.5,44.2,39.1,88,67,54,29.89,29.65,8,1,12,0.00
2013-11-3,53.2,47.1,37.5,41.6,32.5,23.3,80,58,33,30.47,29.88,16,3,18,0.00
2013-11-4,42.9,36.9,28.9,27.6,23.8,20.3,71,59,49,30.65,30.46,9,1,12,0.00
2013-11-5,52.6,44.7,32.8,43.9,35.7,24.2,81,71,57,30.64,30.46,3,0,0,0.00
2013-11-6,65.2,56.3,45.5,52.7,48.6,42.7,93,76,63,30.46,30.04,12,2,16,0.00
2013-11-7,57.3,52.0,40.9,54.2,44.3,25.2,94,76,51,30.07,29.87,20,2,20,0.12
2013-11-8,47.7,41.5,34.1,32.2,26.7,23.9,69,56,40,30.33,30.07,17,1,17,0.00
2013-11-9,52.5,41.2,28.8,31.8,28.0,23.7,85,61,41,30.36,30.03,15,1,15,0.00
2013-11-10,58.4,47.4,38.7,37.5,30.7,27.8,68,53,37,30.24,29.98,13,2,20,0.00
2013-11-11,54.8,46.9,38.0,34.6,30.5,28.7,73,54,39,30.29,30.01,8,1,0,0.00
2013-11-12,50.4,37.7,29.6,38.4,23.4,14.8,73,57,42,30.42,29.99,20,5,25,0.00
2013-11-13,40.4,33.3,28.7,24.0,20.4,18.4,70,59,44,30.50,30.39,12,2,17,0.00
2013-11-14,56.2,41.4,28.2,23.2,18.3,11.9,63,41,21,30.39,30.22,5,0,0,0.00
2013-11-15,58.1,46.1,31.6,38.4,25.6,20.5,77,46,26,30.29,30.19,6,0,0,0.01
2013-11-16,54.1,47.5,40.1,49.2,45.0,36.4,100,91,73,30.33,30.23,9,1,0,0.07
2013-11-17,60.3,54.6,49.6,58.6,53.9,49.1,100,97,93,30.24,29.70,14,4,20,0.03
2013-11-18,63.9,57.7,47.2,59.5,36.6,26.9,94,48,27,29.94,29.68,13,2,20,0.11
2013-11-19,47.0,40.3,31.2,29.7,26.8,24.5,77,59,46,30.39,29.94,17,4,24,0.00
2013-11-20,44.6,35.2,27.1,25.6,21.4,13.1,82,59,30,30.58,30.39,6,1,0,0.00
2013-11-21,45.2,39.8,32.7,37.9,31.9,25.1,80,73,67,30.59,30.39,8,1,0,0.00
2013-11-22,58.9,50.5,42.5,52.1,44.9,37.8,89,81,72,30.39,30.02,13,0,21,0.00
2013-11-23,52.1,39.7,27.5,44.0,26.6,9.5,77,60,43,30.23,30.05,15,3,24,0.00
2013-11-24,28.6,24.3,21.1,13.4,9.2,6.0,60,52,42,30.53,30.24,21,3,24,0.00
2013-11-25,34.8,27.1,18.0,13.1,10.1,7.7,65,50,34,30.58,30.34,11,2,15,0.00
2013-11-26,36.0,32.5,30.9,35.2,26.0,13.0,97,79,45,30.34,29.66,10,1,16,1.78
2013-11-27,38.0,34.7,26.9,36.3,29.9,16.0,98,83,62,30.05,29.56,26,4,26,0.23
2013-11-28,34.6,29.4,24.4,20.1,16.4,13.8,66,58,48,30.49,30.05,22,2,22,0.00
2013-11-29,37.7,30.7,23.6,24.7,20.1,16.9,78,65,50,30.74,30.47,14,2,18,0.00
2013-11-30,33.5,29.4,24.8,21.5,19.2,15.9,76,66,58,30.74,30.39,6,1,0,0.00
2013-12-1,42.7,33.5,22.6,30.0,25.2,19.2,92,72,57,30.39,30.03,2,0,0,0.00
2013-12-2,44.3,39.7,36.8,34.7,31.6,28.5,81,73,67,30.03,29.89,4,0,0,0.00
2013-12-3,54.1,44.1,36.5,39.9,36.3,32.7,88,74,57,30.00,29.89,4,0,0,0.00
2013-12-4,54.0,46.3,34.5,48.6,41.4,31.7,94,83,73,30.09,30.00,8,1,0,0.00
2013-12-5,65.3,57.8,50.4,59.5,54.9,47.9,97,90,76,30.07,29.91,11,2,13,0.01
2013-12-6,61.7,45.6,36.2,61.1,44.6,34.9,98,96,93,30.18,29.86,12,2,16,1.59
2013-12-7,37.4,34.3,28.4,35.9,28.8,20.6,97,81,66,30.56,30.16,12,3,19,0.03
2013-12-8,28.3,25.1,23.2,27.3,21.9,18.0,97,88,72,30.61,30.33,6,1,0,0.00
2013-12-9,34.3,31.4,28.4,33.3,30.5,27.4,98,96,95,30.35,30.06,4,0,0,0.28
2013-12-10,35.6,32.0,25.4,32.6,27.5,16.7,98,84,64,30.23,30.01,9,1,16,0.14
2013-12-11,35.9,28.2,23.2,19.5,17.1,15.0,73,63,48,30.41,30.23,3,0,0,0.21
2013-12-12,31.4,25.6,20.3,22.1,11.1,5.4,77,55,38,30.45,30.25,13,2,16,0.01
2013-12-13,38.8,30.2,20.3,20.6,13.8,7.5,71,51,39,30.33,30.23,8,0,0,0.07
2013-12-14,33.8,31.4,28.1,33.3,27.7,18.5,98,87,59,30.35,29.75,8,1,14,0.27
2013-12-15,41.7,34.1,31.0,37.5,29.1,22.0,99,83,63,29.95,29.66,11,1,14,0.26
2013-12-16,34.4,30.4,27.3,26.7,22.8,19.2,78,73,69,30.20,29.94,8,1,0,0.00
2013-12-17,36.3,30.9,28.0,31.3,27.4,23.8,92,87,78,30.16,29.95,5,1,0,0.01
2013-12-18,37.0,31.5,26.3,27.5,22.8,19.9,100,71,58,30.23,30.01,5,0,12,0.00
2013-12-19,45.9,35.2,21.5,32.0,25.6,17.9,88,69,54,30.21,30.08,4,0,0,0.00
2013-12-20,49.7,43.5,36.9,37.7,32.4,29.1,73,65,56,30.12,30.00,4,0,0,0.00
2013-12-21,66.2,55.2,42.5,59.4,47.1,35.7,84,74,63,30.01,29.87,16,1,18,0.00
2013-12-22,68.6,63.2,59.7,63.8,59.9,57.0,97,89,82,29.98,29.79,14,3,18,0.32
2013-12-23,59.9,50.3,34.8,58.7,46.0,25.4,99,86,68,30.25,29.89,14,3,19,0.90
2013-12-24,38.2,29.7,20.7,27.3,19.1,8.2,85,65,45,30.49,30.21,12,2,26,0.00
2013-12-25,28.3,23.1,16.8,16.6,12.3,9.3,76,63,52,30.60,30.38,12,2,12,0.00
2013-12-26,43.5,31.5,23.7,26.7,20.4,16.3,83,65,45,30.38,30.23,11,1,13,0.00
2013-12-27,49.8,37.4,26.3,24.4,19.1,16.2,72,49,28,30.43,30.31,6,0,0,0.00
2013-12-28,57.8,43.2,30.1,29.4,24.6,19.8,67,49,29,30.34,30.11,7,0,0,0.00
2013-12-29,45.4,42.8,38.8,43.6,38.0,26.1,98,85,49,30.11,29.56,11,1,14,1.05
2013-12-30,46.4,37.8,26.2,40.1,29.8,19.4,88,73,66,30.19,29.82,14,2,18,0.00
2013-12-31,39.4,30.6,25.0,28.1,21.4,16.2,84,69,50,30.34,30.12,10,1,16,0.00
2014-1-1,43.2,33.2,24.8,28.2,23.3,16.4,81,68,50,30.42,30.14,9,1,0,0.00
2014-1-2,33.9,30.5,25.7,29.8,27.5,24.0,96,89,77,30.14,29.66,7,1,0,0.00